Location: Brompton
(51.4000°N, 0.5333°E)
Time: 18:45:56
(UTC+00:00)

BREEZE-M DEB (TANK) - Pass Details

Date: 11 May 2021
Orbit: 284 x 18730 km, 52.5° (Epoch: 21 June)

Event Time Altitude Azimuth Distance (km) Brightness Sun altitude
Rises 21:42:27 0° 260° (W) 7,452 8.9 -14.7°
Reaches altitude 10° 21:49:30 10° 262° (W) 4,414 7.7 -15.3°
Maximum altitude 21:57:59 81° 351° (N) 664 3.2 -16.0°
Drops below altitude 10° 22:00:42 10° 79° (E) 1,475 4.8 -16.2°
Enters shadow 22:00:47 - 79° (E) 1,513 4.9 -16.2°
